^^
Paulen-Weather Station Historical Data
Daily Summary for August 04, 2022 Units:  Metric    English   Both
Daily Weekly Monthly Yearly Custom
  High: Low: Average:
Temperature: 17 °C 16 °C 16.4 °C
Dew Point: 16 °C 16 °C 16 °C
Humidity: 97% 95% 96%
Wind Speed: 16km/h 5km/h 10km/h
Wind Gust: 13km/h - -
Wind- - SSW
Pressure: 1011.38 hPa 1010.6 hPa -
Precipitation: 0 mm    
Historical Graphs
 
 
Tabular Data for August 04, 2022
Time Temperature Dew Point Pressure Wind Wind Speed Wind Gust Humidity Rainfall Rate (Hourly) solar
00:04 17 °C 16 °C 1010.6 hPa SSW 8 km/h 6 km/h 96% 0 mm 0 W/m2
00:09 17 °C 16 °C 1010.7 hPa SSW 11 km/h 8 km/h 96% 0 mm 0 W/m2
00:14 17 °C 16 °C 1010.7 hPa SSW 12 km/h 10 km/h 96% 0 mm 0 W/m2
00:19 17 °C 16 °C 1010.74 hPa SW 12 km/h 10 km/h 96% 0 mm 0 W/m2
00:24 17 °C 16 °C 1010.77 hPa SW 10 km/h 10 km/h 96% 0 mm 0 W/m2
00:29 17 °C 16 °C 1010.77 hPa SSW 12 km/h 10 km/h 96% 0 mm 0 W/m2
00:34 17 °C 16 °C 1010.8 hPa SSW 15 km/h 13 km/h 96% 0 mm 0 W/m2
00:39 17 °C 16 °C 1010.87 hPa SSW 15 km/h 11 km/h 96% 0 mm 0 W/m2
00:44 17 °C 16 °C 1010.87 hPa SW 14 km/h 12 km/h 96% 0 mm 0 W/m2
00:49 17 °C 16 °C 1010.94 hPa SSW 10 km/h 10 km/h 96% 0 mm 0 W/m2
00:54 17 °C 16 °C 1011.01 hPa SW 15 km/h 9 km/h 96% 0 mm 0 W/m2
00:59 17 °C 16 °C 1010.94 hPa SW 12 km/h 12 km/h 96% 0 mm 0 W/m2
01:04 17 °C 16 °C 1010.97 hPa SW 16 km/h 10 km/h 96% 0 mm 0 W/m2
01:09 17 °C 16 °C 1011.01 hPa SSW 11 km/h 10 km/h 96% 0 mm 0 W/m2
01:14 17 °C 16 °C 1010.97 hPa SW 13 km/h 10 km/h 96% 0 mm 0 W/m2
01:19 17 °C 16 °C 1011.01 hPa SW 13 km/h 11 km/h 96% 0 mm 0 W/m2
01:24 17 °C 16 °C 1011.01 hPa SW 13 km/h 10 km/h 96% 0 mm 0 W/m2
01:29 17 °C 16 °C 1011.07 hPa SSW 10 km/h 9 km/h 96% 0 mm 0 W/m2
01:34 16 °C 16 °C 1011.07 hPa SW 9 km/h 7 km/h 96% 0 mm 0 W/m2
01:39 16 °C 16 °C 1011.14 hPa SSW 10 km/h 8 km/h 96% 0 mm 0 W/m2
01:44 16 °C 16 °C 1011.14 hPa SW 10 km/h 9 km/h 96% 0 mm 0 W/m2
01:49 16 °C 16 °C 1011.14 hPa SSW 11 km/h 8 km/h 96% 0 mm 0 W/m2
01:54 16 °C 16 °C 1011.21 hPa SW 13 km/h 12 km/h 96% 0 mm 0 W/m2
01:59 16 °C 16 °C 1011.24 hPa SW 12 km/h 9 km/h 96% 0 mm 0 W/m2
02:04 16 °C 16 °C 1011.24 hPa SW 14 km/h 10 km/h 96% 0 mm 0 W/m2
02:09 16 °C 16 °C 1011.31 hPa SSW 11 km/h 11 km/h 96% 0 mm 0 W/m2
02:14 17 °C 16 °C 1011.31 hPa SSW 11 km/h 10 km/h 96% 0 mm 0 W/m2
02:19 16 °C 16 °C 1011.34 hPa SSW 13 km/h 8 km/h 95% 0 mm 0 W/m2
02:24 16 °C 16 °C 1011.34 hPa SSW 13 km/h 10 km/h 95% 0 mm 0 W/m2
02:29 16 °C 16 °C 1011.38 hPa SW 13 km/h 10 km/h 95% 0 mm 0 W/m2
02:34 16 °C 16 °C 1011.38 hPa SSW 12 km/h 11 km/h 95% 0 mm 0 W/m2
02:39 16 °C 16 °C 1011.38 hPa SSW 12 km/h 10 km/h 95% 0 mm 0 W/m2
02:44 16 °C 16 °C 1011.34 hPa SW 11 km/h 7 km/h 95% 0 mm 0 W/m2
02:49 16 °C 16 °C 1011.38 hPa SW 8 km/h 7 km/h 95% 0 mm 0 W/m2
02:54 16 °C 16 °C 1011.38 hPa SW 8 km/h 7 km/h 96% 0 mm 0 W/m2
02:59 16 °C 16 °C 1011.38 hPa SSW 10 km/h 9 km/h 96% 0 mm 0 W/m2
03:04 16 °C 16 °C 1011.38 hPa SSW 9 km/h 7 km/h 96% 0 mm 0 W/m2
03:09 16 °C 16 °C 1011.38 hPa SSW 7 km/h 7 km/h 96% 0 mm 0 W/m2
03:14 16 °C 16 °C 1011.34 hPa SSW 8 km/h 8 km/h 96% 0 mm 0 W/m2
03:19 16 °C 16 °C 1011.38 hPa SW 7 km/h 5 km/h 96% 0 mm 0 W/m2
03:24 16 °C 16 °C 1011.38 hPa SSW 10 km/h 9 km/h 96% 0 mm 0 W/m2
03:29 16 °C 16 °C 1011.38 hPa SSW 8 km/h 7 km/h 96% 0 mm 0 W/m2
03:34 16 °C 16 °C 1011.28 hPa SW 6 km/h 5 km/h 96% 0 mm 0 W/m2
03:39 16 °C 16 °C 1011.31 hPa SW 6 km/h 5 km/h 96% 0 mm 0 W/m2
03:44 16 °C 16 °C 1011.28 hPa SSW 6 km/h 5 km/h 96% 0 mm 0 W/m2
03:49 17 °C 16 °C 1011.31 hPa SSW 6 km/h 6 km/h 96% 0 mm 0 W/m2
03:54 17 °C 16 °C 1011.34 hPa SW 7 km/h 7 km/h 96% 0 mm 0 W/m2
03:59 17 °C 16 °C 1011.34 hPa SW 8 km/h 8 km/h 96% 0 mm 0 W/m2
04:04 17 °C 16 °C 1011.34 hPa SW 8 km/h 6 km/h 96% 0 mm 0 W/m2
04:09 16 °C 16 °C 1011.38 hPa SSW 5 km/h 5 km/h 96% 0 mm 0 W/m2
04:14 16 °C 16 °C 1011.28 hPa SW 7 km/h 5 km/h 96% 0 mm 0 W/m2
04:19 16 °C 16 °C 1011.38 hPa SSW 7 km/h 6 km/h 96% 0 mm 0 W/m2
04:24 16 °C 16 °C 1011.34 hPa SW 7 km/h 6 km/h 96% 0 mm 0 W/m2
04:29 17 °C 16 °C 1011.28 hPa SW 8 km/h 9 km/h 96% 0 mm 0 W/m2
04:34 17 °C 16 °C 1011.21 hPa SSW 5 km/h 5 km/h 96% 0 mm 0 W/m2
04:39 17 °C 16 °C 1011.24 hPa SW 8 km/h 7 km/h 96% 0 mm 0 W/m2
04:44 17 °C 16 °C 1011.24 hPa SW 6 km/h 5 km/h 96% 0 mm 0 W/m2
04:49 17 °C 16 °C 1011.21 hPa SW 7 km/h 5 km/h 96% 0 mm 0 W/m2
04:54 17 °C 16 °C 1011.11 hPa SSW 6 km/h 4 km/h 96% 0 mm 0 W/m2
04:59 16 °C 16 °C 1011.18 hPa SSW 7 km/h 6 km/h 96% 0 mm 0 W/m2
05:04 16 °C 16 °C 1011.18 hPa SSW 8 km/h 8 km/h 96% 0 mm 0 W/m2
05:09 16 °C 16 °C 1011.14 hPa SSW 9 km/h 8 km/h 96% 0 mm 0 W/m2
05:14 16 °C 16 °C 1011.14 hPa SSW 9 km/h 8 km/h 96% 0 mm 0 W/m2
05:19 16 °C 16 °C 1011.07 hPa SSW 8 km/h 7 km/h 96% 0 mm 0 W/m2
05:24 16 °C 16 °C 1011.04 hPa SSW 8 km/h 7 km/h 96% 0 mm 0 W/m2
05:29 16 °C 16 °C 1010.97 hPa S 8 km/h 7 km/h 96% 0 mm 5 W/m2
05:34 16 °C 16 °C 1011.01 hPa S 9 km/h 8 km/h 96% 0 mm 5 W/m2
05:39 16 °C 16 °C 1011.07 hPa S 11 km/h 9 km/h 96% 0 mm 9 W/m2
05:44 16 °C 16 °C 1011.11 hPa S 12 km/h 11 km/h 96% 0 mm 12 W/m2
05:49 16 °C 16 °C 1011.14 hPa SSW 11 km/h 10 km/h 97% 0 mm 12 W/m2
05:54 16 °C 16 °C 1011.18 hPa S 12 km/h 11 km/h 96% 0 mm 14 W/m2
05:59 16 °C 16 °C 1011.18 hPa SSW 13 km/h 12 km/h 97% 0 mm 14 W/m2
06:04 16 °C 16 °C 1011.14 hPa S 12 km/h 11 km/h 97% 0 mm 21 W/m2
06:09 16 °C 16 °C 1011.18 hPa S 14 km/h 12 km/h 97% 0 mm 26 W/m2
06:14 16 °C 16 °C 1011.18 hPa S 14 km/h 12 km/h 97% 0 mm 40 W/m2
06:19 16 °C 16 °C 1011.14 hPa S 11 km/h 10 km/h 97% 0 mm 40 W/m2
06:24 16 °C 16 °C 1011.11 hPa S 11 km/h 10 km/h 97% 0 mm 39 W/m2
06:29 16 °C 16 °C 1011.04 hPa S 12 km/h 10 km/h 97% 0 mm 44 W/m2
06:34 16 °C 16 °C 1011.04 hPa SSW 11 km/h 9 km/h 97% 0 mm 54 W/m2
06:39 16 °C 16 °C 1011.04 hPa S 8 km/h 7 km/h 97% 0 mm 97 W/m2
Compliments of Weather Underground - 2 mb